{"data":{"norad_id":57714,"intl_designator":"2023-129S","name":"STARLINK-30341","alt_names":[],"object_type":"PAYLOAD","status":"ACTIVE","operator":null,"country":"US","launch_date":"2023-08-27","launch_site_code":"AFETR","launch_vehicle":null,"mission":null,"orbit_class":"UNKNOWN","rcs_meters":null,"size_class":null,"mass_kg":null,"dimensions":null,"purposes":["comms"],"wikipedia_slug":null,"has_3d_model":false,"image_url":null,"decayed_at":null,"tle_current":{"epoch":"2026-05-25T03:03:14.317056Z","epoch_age_seconds":70807,"freshness":"FRESH","line1":"1 57714U 23129S   26145.12724904  .00002997  00000+0  11834-3 0  9994","line2":"2 57714  43.0055  49.5378 0001576 243.5618 116.5072 15.27598503152338","mean_motion":15.27598503,"eccentricity":0.0001576,"inclination_deg":43.0055,"raan_deg":49.5378,"arg_perigee_deg":243.5618,"mean_anomaly_deg":116.5072,"bstar":0.00011834,"rev_number":15233,"period_min":94.265606909933,"perigee_km":481.91237776342,"apogee_km":484.07500615753,"semimajor_km":6861.1306919605,"source":"CELESTRAK","updated_at":"2026-05-25T13:38:18.373929Z"}}}